Location: Breungeshain
(50.5000°N, 9.2000°E)
Time: 09:48:31
(UTC+00:00)

ISS - Pass Details

Date: 22 May 2017
Orbit: 401 x 407 km, 51.6° (Epoch: 25 September)

Event Time Altitude Azimuth Distance (km) Brightness Sun altitude
Exits shadow 21:51:30 25° 101° (E) 885 -2.4 -16.3°
Drops below altitude 10° 21:53:15 10° 82° (E) 1,493 -1.1 -16.4°
Enters shadow 23:13:53 -19° 258° (WSW) 5,285 1.8 -18.9°
Maximum altitude 23:26:35 79° 350° (N) 428 -3.7 -18.9°
